This is the latest recevied weather packets stored in our database for station/object JR5VPD-10. If no packets are shown the sender has not sent any weather packets the latest 10 day(s).
| Time | Temp. | Humidity | Pressure | Rain* | Wind** | Luminosity | Snow |
|---|---|---|---|---|---|---|---|
| 1788050172 | 30.56° C | 76% | 1007.3 hPa | 0 mm | 0 m/s | - | - |
| 1788048372 | 30.56° C | 77% | 1007.1 hPa | 0 mm | 0 m/s | - | - |
| 1788046572 | 30° C | 82% | 1007.2 hPa | 0 mm | 0 m/s | - | - |
| 1788044772 | 30° C | 85% | 1007.1 hPa | 0 mm | 0 m/s | - | - |
| 1788042972 | 28.89° C | 91% | 1007.1 hPa | 0 mm | 0 m/s | - | - |
| 1788041172 | 28.89° C | 92% | 1006.8 hPa | 0 mm | 0 m/s | - | - |
| 1788039372 | 28.89° C | 92% | 1006.7 hPa | 0 mm | 0 m/s | - | - |
| 1788037572 | 28.89° C | 93% | 1006.5 hPa | 0 mm | 0 m/s | - | - |
| 1788035772 | 28.89° C | 92% | 1006.3 hPa | 0 mm | 0 m/s | - | - |
| 1788033972 | 28.89° C | 92% | 1006 hPa | 0 mm | 0 m/s | - | - |
| 1788032172 | 28.89° C | 91% | 1005.9 hPa | 0 mm | 0 m/s | - | - |
| 1788030372 | 28.89° C | 90% | 1005.8 hPa | 0 mm | 0 m/s | - | - |
| 1788028572 | 28.89° C | 86% | 1005.7 hPa | 0 mm | 0 m/s | - | - |
| 1788026772 | 28.89° C | 86% | 1005.6 hPa | 0 mm | 0 m/s | - | - |
| 1788024972 | 28.89° C | 83% | 1005.5 hPa | 0 mm | 0 m/s | - | - |
| 1788023172 | 30° C | 80% | 1005.6 hPa | 0 mm | 0 m/s | - | - |
| 1788021372 | 30° C | 81% | 1005.5 hPa | 0 mm | 0 m/s | - | - |
| 1788019572 | 30° C | 76% | 1005.5 hPa | 0 mm | 0 m/s | - | - |
| 1788017772 | 30° C | 77% | 1005.7 hPa | 0 mm | 0 m/s | - | - |
| 1788015972 | 30° C | 75% | 1005.9 hPa | 0 mm | 0 m/s | - | - |
| 1788014172 | 30° C | 72% | 1006 hPa | 0 mm | 0 m/s | - | - |
| 1788012372 | 30.56° C | 71% | 1006 hPa | 0 mm | 0 m/s | - | - |
| 1788010572 | 30.56° C | 69% | 1005.9 hPa | 0 mm | 0 m/s | - | - |
| 1788008772 | 30.56° C | 69% | 1005.8 hPa | 0 mm | 0 m/s | - | - |
| 1788006972 | 30.56° C | 69% | 1005.8 hPa | 0 mm | 0 m/s | - | - |
* Rain latest hour (hover to see other rain measurements)
** Current wind speed in m/s (hover to see current wind gust speed)